星链-36663(STARLINK-36663)

导读 | 豆包AI

STARLINK-36663是美国SpaceX公司星链(Starlink)星座中的一颗卫星,于2026年2月20日由猎鹰9号火箭发射升空,部署至近地轨道,执行Starlink 10-36星座组网任务。 作为星链星座的组成部分,它旨在为全球提供高速宽带互联网接入服务,尤其覆盖偏远等网络基础设施薄弱区域。此次发射是SpaceX 2026年第20次成功发射,推动星链在轨卫星规模进一步扩大。

基本信息
目录编号:
67875
目录名称:
STARLINK-36727
国际标识:
2026-034AB
轨道中心:
EARTH
卫星名称:
星链-36663
卫星全名:
星链-36663(STARLINK-36663)
卫星状态:
在轨 (已飞行94 天)
发射日期:
2026-02-20 UTC
国别 :
美国 (US)
星等 :
--
轨道信息
数据来源 国际轨道数据
星历时间: 2026-05-25T12:12:05+0800
6小时前
查看轨道信息
半长轴: 6848.83km
偏心率: 0.0001311
轨道倾角: 53.159°
近地点辐角 89.031°
升交点赤经 208.421°
平近点角 271.084°
近地点: 469.795km
远地点: 471.591km
周期: 94.012分钟
每日圈数: 15.317159
详细信息
固有亮度:
5
最大亮度:
2.5
卫星平台:
Starlink V1.0
覆盖范围:
全球
运营商:
太空探索技术公司
运营商所在国:
美国
制造商(研发单位):
太空探索技术公司
制造商所在国:
美国
使用方式:
暂无
卫星简介
Starlink 计划是 SpaceX 推出的全球卫星互联网项目,通过发射低轨道卫星,为全球尤其是偏远地区提供高速、低延迟的互联网服务。自 2019 年起,Starlink 已部署数千颗卫星,旨在缩小全球数字鸿沟,推动互联网普及。该项目还为军事、航空等行业提供通信支持,带来广泛经济效益。
2D轨道图
3D轨道图
轨道高度分析图
轨道倾角分析图
轨道综合分析图
查看轨道综合分析图